This demonstration page uses our WeatherBlox Daily Observations layout. Learn more.

40.92945, -100.16068

Hourly Observations for January 20, 2017

Temp ( °F °C ) Dew Point ( °F °C ) Humidity (%) Winds ( mph kmh ) Pressure ( in mb ) Visibility ( mi km ) Precip ( " mm )
12:15 am 00:15 Cloudy with Mist and Fog 37 2.8 36 2.2 96 96 S 6 9 29.62 1003 3 4.82802 0 0
12:35 am 00:35 Cloudy with Mist and Fog 37 2.8 36 2.2 96 96 SSW 5 7 29.62 1003 2.5 4.02335 0 0
12:55 am 00:55 Cloudy with Mist and Fog 37 2.6 36 2 96 96 S 3 6 29.65 1004 2.5 4.02335 0 0
1:15 am 01:15 Cloudy with Mist and Fog 37 2.5 36 2 97 97 Calm 29.59 1002 2 3.21868 0 0
1:35 am 01:35 Cloudy with Mist and Fog 36 2.4 35 1.7 95 95 SE 3 6 29.62 1003 1 1.60934 0 0
1:55 am 01:55 Cloudy with Mist and Fog 37 2.5 35 1.8 95 95 E 3 6 29.56 1001 2 3.21868 0 0
2:15 am 02:15 Cloudy with Fog 35 1.4 33 0.8 96 96 Calm 29.62 1003 0.5 0.80467 0 0
2:35 am 02:35 Cloudy with Mist and Fog 35 1.5 34 1 97 97 Calm 29.62 1003 0.75 1.207005 0 0
2:55 am 02:55 Cloudy with Mist and Fog 34 1.2 33 0.7 97 97 Calm 29.59 1002 0.75 1.207005 0 0
3:15 am 03:15 Cloudy with Fog 35 1.5 34 1 97 97 Calm 29.59 1002 0.5 0.80467 0 0
3:35 am 03:35 Cloudy with Mist and Fog 35 1.7 34 1.1 96 96 Calm 29.59 1002 0.75 1.207005 0 0
3:55 am 03:55 Cloudy with Mist and Fog 35 1.5 34 1 97 97 S 3 6 29.59 1002 0.75 1.207005 0 0
4:15 am 04:15 Cloudy with Mist and Fog 35 1.5 34 1 97 97 Calm 29.59 1002 1.25 2.011675 0 0
4:35 am 04:35 Cloudy with Mist and Fog 35 1.6 34 1 96 96 Calm 29.59 1002 1.5 2.41401 0 0
4:55 am 04:55 Cloudy with Mist and Fog 35 1.5 34 0.9 96 96 Calm 29.56 1001 1.75 2.816345 0 0
5:15 am 05:15 Cloudy with Mist and Fog 35 1.4 33 0.7 95 95 SW 3 6 29.59 1002 2.5 4.02335 0 0
5:35 am 05:35 Cloudy with Mist and Fog 35 1.5 34 1 97 97 Calm 29.59 1002 3 4.82802 0 0
5:55 am 05:55 Cloudy with Mist and Fog 35 1.5 34 1 97 97 Calm 29.59 1002 4 6.43736 0 0
6:15 am 06:15 Cloudy with Mist and Fog 35 1.7 34 1.1 96 96 Calm 29.59 1002 4 6.43736 0 0
6:35 am 06:35 Cloudy with Mist and Fog 35 1.7 34 1.1 96 96 Calm 29.59 1002 5 8.0467 0 0
6:55 am 06:55 Cloudy with Mist and Fog 35 1.7 34 1.1 96 96 SE 6 9 29.56 1001 5 8.0467 0 0
7:15 am 07:15 Cloudy 36 2.3 35 1.7 96 96 Calm 29.53 1000 7 11.26538 0 0
7:35 am 07:35 Cloudy 36 2.1 35 1.5 96 96 S 5 7 29.53 1000 7 11.26538 0 0
7:55 am 07:55 Cloudy 36 2.1 35 1.5 96 96 S 6 9 29.53 1000 7 11.26538 0 0
8:15 am 08:15 Cloudy with Mist and Fog 36 2 35 1.5 97 97 Calm 29.53 1000 4 6.43736 0 0
8:35 am 08:35 Cloudy with Mist and Fog 36 2 35 1.5 97 97 Calm 29.53 1000 4 6.43736 0 0
8:55 am 08:55 Cloudy with Mist and Fog 36 2.3 35 1.7 96 96 Calm 29.53 1000 4 6.43736 0 0
9:15 am 09:15 Cloudy with Mist and Fog 37 2.5 36 2 97 97 Calm 29.53 1000 3 4.82802 0 0
9:35 am 09:35 Cloudy with Mist and Fog 37 2.8 36 2.2 96 96 Calm 29.53 1000 4 6.43736 0 0
9:55 am 09:55 Cloudy with Mist and Fog 37 2.8 36 2.2 96 96 S 7 11 29.53 1000 4 6.43736 0 0
10:15 am 10:15 Cloudy with Mist and Fog 38 3.1 37 2.5 96 96 S 5 7 29.53 1000 4 6.43736 0 0
10:35 am 10:35 Cloudy with Mist and Fog 38 3.2 37 2.6 96 96 Calm 29.53 1000 3 4.82802 0 0
10:55 am 10:55 Cloudy with Mist and Fog 38 3.5 37 3 97 97 S 8 13 29.53 1000 5 8.0467 0 0
11:15 am 11:15 Cloudy with Mist and Fog 38 3.6 37 3 96 96 S 7 11 29.53 1000 5 8.0467 0 0
11:35 am 11:35 Cloudy with Mist and Fog 39 4 38 3.3 95 95 SSW 6 9 29.5 999 2 3.21868 0 0
11:55 am 11:55 Cloudy with Mist and Fog 40 4.2 38 3.5 95 95 SSW 6 9 29.5 999 3 4.82802 0 0
12:15 pm 12:15 Cloudy 40 4.4 38 3.6 95 95 S 6 9 29.5 999 7 11.26538 0 0
12:35 pm 12:35 Cloudy 40 4.6 39 4 96 96 SSW 7 11 29.44 997 10 16.0934 0 0
12:55 pm 12:55 Cloudy 40 4.7 39 4 95 95 WSW 3 6 29.44 997 10 16.0934 0 0
1:15 pm 13:15 Cloudy 40 4.7 39 3.7 93 93 WSW 5 7 29.44 997 10 16.0934 0 0
1:35 pm 13:35 Cloudy 40 4.4 38 3.2 92 92 WSW 6 9 29.41 996 7 11.26538 0 0
1:55 pm 13:55 Cloudy 40 4.2 37 3 92 92 W 5 7 29.41 996 7 11.26538 0 0
2:15 pm 14:15 Cloudy 40 4.5 38 3.1 91 91 WSW 3 6 29.41 996 10 16.0934 0 0
2:35 pm 14:35 Cloudy 40 4.7 37 2.7 87 87 W 3 6 29.41 996 10 16.0934 0 0
2:55 pm 14:55 Cloudy 41 5.2 37 2.6 84 84 SW 3 6 29.41 996 10 16.0934 0 0
3:15 pm 15:15 Cloudy 42 5.3 37 2.6 83 83 S 5 7 29.41 996 10 16.0934 0 0
3:35 pm 15:35 Cloudy 42 5.3 37 2.8 84 84 S 5 7 29.41 996 10 16.0934 0 0
3:55 pm 15:55 Mostly Cloudy 42 5.5 37 2.7 82 82 SSW 5 7 29.41 996 10 16.0934 0 0
4:15 pm 16:15 Cloudy 42 5.5 37 2.7 82 82 SSW 6 9 29.41 996 10 16.0934 0 0
4:35 pm 16:35 Cloudy 41 5.1 37 2.6 84 84 SSW 5 7 29.38 995 10 16.0934 0 0
4:55 pm 16:55 Cloudy 41 4.8 37 2.5 85 85 Calm 29.38 995 10 16.0934 0 0
5:15 pm 17:15 Cloudy 40 4.5 36 2.4 86 86 Calm 29.38 995 10 16.0934 0 0
5:35 pm 17:35 Cloudy 39 4.1 36 2.2 88 88 Calm 29.38 995 10 16.0934 0 0
5:55 pm 17:55 Cloudy 39 3.7 36 2.1 89 89 Calm 29.44 997 10 16.0934 0 0
6:15 pm 18:15 Cloudy 38 3.3 36 2 91 91 SSW 3 6 29.44 997 10 16.0934 0 0
6:35 pm 18:35 Cloudy 38 3.5 36 2 90 90 SSW 3 6 29.44 997 10 16.0934 0 0
6:55 pm 18:55 Cloudy 38 3.1 35 1.9 92 92 S 6 9 29.44 997 7 11.26538 0 0
7:15 pm 19:15 Cloudy 38 3.2 36 2 92 92 S 6 9 29.44 997 7 11.26538 0 0
7:35 pm 19:35 Cloudy 37 2.8 35 1.5 91 91 S 6 9 29.44 997 7 11.26538 0 0
7:55 pm 19:55 Cloudy with Mist and Fog 36 2.4 34 1.2 92 92 S 7 11 29.47 998 5 8.0467 0 0
8:15 pm 20:15 Cloudy 37 2.5 35 1.5 93 93 SSW 7 11 29.47 998 7 11.26538 0 0
8:35 pm 20:35 Mostly Cloudy 37 2.5 35 1.4 93 93 SSW 6 9 29.44 997 7 11.26538 0 0
8:55 pm 20:55 Cloudy 36 2.2 34 1.1 93 93 SSW 6 9 29.44 997 7 11.26538 0 0
9:15 pm 21:15 Cloudy 36 2 34 1 93 93 SSW 6 9 29.47 998 7 11.26538 0 0
9:35 pm 21:35 Cloudy with Mist and Fog 35 1.8 33 0.8 93 93 SW 7 11 29.47 998 5 8.0467 0 0
9:55 pm 21:55 Cloudy with Mist and Fog 36 2.1 34 1 93 93 SW 6 9 29.44 997 5 8.0467 0 0
10:15 pm 22:15 Cloudy with Mist and Fog 36 2 34 1 93 93 SW 6 9 29.47 998 5 8.0467 0 0
10:35 pm 22:35 Cloudy 36 2 34 1 93 93 WSW 3 6 29.47 998 7 11.26538 0 0
10:55 pm 22:55 Cloudy 36 2 34 0.9 93 93 WNW 3 6 29.47 998 7 11.26538 0 0
11:15 pm 23:15 Cloudy 35 1.7 33 0.5 92 92 WNW 5 7 29.47 998 7 11.26538 0 0
11:35 pm 23:35 Cloudy 34 1.2 32 0.1 92 92 WNW 5 7 29.5 999 7 11.26538 0 0
11:55 pm 23:55 Cloudy 34 1 32 0 93 93 WNW 5 7 29.5 999 7 11.26538 0 0

Powered by AerisWeather